#timestamp,LO_Frequency,Hit 
1504868415.3,286046998.0,N
1504868435.1,286046996.2,N
1504868455.8,286046996.1,N
1504868475.7,286046995.3,P
1504868495.5,286046998.5,N
1504868515.4,286046999.6,N
1504868535.2,286046999.3,N
1504868555.0,286046998.4,N
1504868555.9,286046998.4,N
1504868575.8,286046998.5,N
1504868595.6,286046997.3,N
1504868615.5,286046997.2,N
1504868635.3,286046996.7,N
1504868655.1,286046996.6,N
1504868675.9,286046997.4,N
1504868695.7,286046997.0,N
1504868715.5,286046997.5,N
1504868735.4,286046997.0,N
1504868755.2,286046997.5,N
1504868775.1,286046996.8,P
1504868776.0,286046996.8,P
1504868795.8,286047001.2,P
1504868815.6,286047000.5,N
1504868835.5,286047002.7,N
1504868855.3,286046998.6,N
1504868875.2,286047000.7,N
1504868895.0,286047001.0,N
1504868895.9,286047001.0,N
1504868915.7,286046999.8,N
1504868935.6,286046998.8,N
1504868955.4,286047001.1,N
1504868975.3,286047000.5,N
1504868995.1,286047002.2,N
1504868996.0,286047002.2,N
1504869015.8,286047000.2,N
1504869035.7,286047000.3,N
1504869055.5,286046998.2,N
1504869075.3,286047002.3,N
1504869095.2,286047001.6,N
1504869115.0,286047000.0,N
1504869115.9,286047000.0,N
1504869135.8,286046998.1,N
1504869155.6,286047001.7,N
1504869175.4,286047003.9,N
1504869195.3,286047000.9,N
1504869215.1,286046998.2,N
1504869235.9,286047002.3,N
1504869255.7,286047002.0,N
1504869275.5,286047001.7,N
1504869295.4,286047000.3,N
1504869315.2,286047000.7,N
1504869335.0,286047002.8,N
1504869335.9,286047002.8,N
1504869355.8,286047000.3,N
1504869375.6,286046998.1,N
1504869395.5,286047001.1,N
1504869415.3,286046998.6,N
1504869435.1,286046999.0,N
1504869455.9,286046999.2,N
1504869475.7,286046998.8,N
1504869495.6,286047000.1,N
1504869515.4,286046999.9,N
1504869535.2,286047001.5,N
1504869555.1,286047001.1,N
1504869556.0,286047001.1,N
1504869575.8,286047000.7,N
1504869595.6,286047000.6,N
1504869615.5,286046999.7,N
1504869635.3,286047001.2,N
1504869655.2,286047000.8,N
1504869675.9,286047001.5,N
1504869695.7,286047001.5,N
1504869715.6,286047002.8,N
1504869735.4,286047001.6,N
1504869755.2,286046999.8,N
1504869775.1,286047000.7,N
1504869776.0,286047000.7,N
1504869795.8,286047001.2,N
1504869815.7,286046999.9,N
1504869835.5,286047000.8,N
1504869855.3,286047000.5,N
1504869875.2,286047001.9,N
1504869895.0,286047001.8,N
1504869895.9,286047001.8,N
1504869915.8,286047000.8,N
1504869935.6,286047002.6,N
1504869955.4,286046999.7,N
1504869975.3,286047000.0,N
1504869995.1,286047002.6,N
1504870015.9,286047002.4,N
1504870035.7,286047002.1,N
1504870055.5,286047004.0,P
1504870075.4,286047000.5,N
1504870095.2,286046999.8,N
1504870115.0,286047000.0,N
1504870115.9,286047000.0,N
1504870135.8,286047001.2,N
1504870155.6,286047001.1,N
1504870175.5,286046999.0,N
1504870195.3,286046998.8,N
1504870215.1,286047002.7,N
1504870235.9,286047002.0,N
1504870255.7,286047001.7,N
1504870275.6,286047004.4,P
1504870295.4,286047002.2,N
1504870315.2,286047002.5,N
1504870335.1,286047001.8,N
1504870336.0,286047001.8,N
1504870355.8,286047002.5,N
1504870375.6,286047001.9,N
1504870395.5,286047002.5,N
1504870415.3,286046998.2,N
1504870435.2,286046999.4,N
1504870455.9,286047000.9,N
1504870475.7,286046998.2,N
1504870495.6,286047001.2,N
1504870515.4,286047000.1,N
1504870535.3,286046999.9,N
1504870555.1,286047000.6,N
1504870556.0,286047000.6,N
1504870575.8,286047000.1,N
1504870595.7,286047000.2,N
1504870615.5,286047000.8,N
1504870635.3,286047000.8,N
1504870655.2,286047000.8,N
1504870675.0,286046998.3,N
1504870675.9,286046998.3,N
1504870695.8,286046998.9,N
1504870715.6,286046999.2,N
1504870735.4,286046996.9,N
1504870755.3,286047000.9,N
1504870775.1,286047000.3,N
1504870795.8,286046998.4,N
1504870815.7,286046997.3,N
1504870835.5,286046996.5,N
1504870855.4,286046999.5,N
1504870875.2,286046998.3,N
1504870895.0,286047000.7,N
1504870895.9,286047000.7,N
1504870915.8,286047000.7,N
1504870935.6,286047001.0,N
1504870955.5,286047001.0,N
1504870975.3,286047001.1,N
1504870995.1,286047002.3,N
1504871015.9,286046999.2,N
1504871035.7,286046999.6,N
1504871055.5,286046997.0,N
1504871075.4,286046998.8,N
1504871095.2,286046998.9,N
1504871115.1,286047000.9,N
1504871116.0,286047000.9,N
1504871135.8,286047000.1,N
1504871155.6,286047001.1,N
1504871175.5,286047002.3,N
1504871195.3,286047002.1,N
1504871215.2,286047000.7,N
1504871235.9,286046998.6,N
1504871255.7,286047000.6,N
1504871275.6,286047002.2,N
1504871295.4,286047000.4,N
1504871315.2,286047000.0,N
1504871335.1,286046999.2,N
1504871336.0,286046999.2,N
1504871355.8,286046998.9,N
1504871375.7,286046998.5,N
1504871395.5,286046998.1,N
1504871415.3,286047002.7,N
1504871435.2,286046998.5,N
1504871455.0,286046996.7,N
1504871455.9,286046996.7,N
1504871475.8,286046998.8,N
1504871495.6,286046999.7,N
1504871515.4,286046998.5,N
1504871535.3,286046996.7,N
1504871555.1,286046998.4,N
1504871575.8,286046996.5,N
1504871595.7,286046997.7,N
1504871615.5,286046997.3,N
1504871635.4,286046999.4,N
1504871655.2,286046999.6,N
1504871675.0,286046996.7,N
1504871675.9,286046996.7,N
1504871695.8,286046996.6,N
1504871715.6,286046997.4,N
1504871735.5,286046996.6,N
1504871755.3,286046999.3,N
1504871775.1,286046999.2,N
1504871795.9,286046998.8,N
1504871815.7,286046996.7,N
1504871835.5,286046997.7,N
1504871855.4,286046997.8,N
1504871875.2,286046997.0,N
1504871895.1,286046996.8,N
1504871896.0,286046996.8,N
1504871915.8,286046996.5,N
1504871935.6,286046999.6,N
1504871955.5,286046997.0,N
1504871975.3,286047001.1,N
1504871995.2,286047002.6,N
